Theta_e
336 335 336 334 338 337 336 335 333 330 330 329 327 328 327 327 327 327 327 328 328 327 328 328 328 328 329 328 327 326 320 318 319 323 327 329 329 328 327 323 325 325 327
336 335 336 330 337 337 335 335 333 331 330 329 328 328 327 328 328 328 327 327 327 328 328 328 328 329 328 327 326 323 319 316 321 322 324 327 326 329 328 327 328 328 329
336 338 336 330 334 338 336 335 333 331 330 330 329 328 328 328 328 328 328 328 329 327 327 326 327 327 327 327 326 321 318 320 323 322 323 325 322 325 329 328 328 327 329
334 337 336 330 331 338 336 334 333 332 331 330 329 328 328 328 328 328 328 327 326 326 326 326 327 326 325 324 322 320 319 322 324 325 324 324 325 324 329 329 329 329 326
333 335 335 328 330 335 336 334 334 332 331 330 329 328 327 328 327 328 326 327 326 327 327 327 327 327 326 323 322 322 322 325 325 325 325 326 326 326 331 330 329 329 329
332 333 333 325 329 335 336 335 334 332 330 330 330 329 328 328 327 328 327 328 328 328 328 328 328 326 324 325 326 326 326 327 328 328 327 326 326 323 332 331 330 328 328
331 334 334 331 328 334 334 336 335 333 329 329 329 328 329 329 328 328 328 328 328 328 328 327 326 326 326 327 327 327 326 326 326 326 325 325 324 328 330 330 329 329 328
335 336 334 333 330 329 332 336 336 333 328 328 329 329 328 328 327 327 326 326 326 325 326 326 326 327 328 327 325 324 324 327 326 325 324 322 326 331 330 329 328 328 327
334 335 335 331 332 333 328 335 336 333 327 328 328 326 328 323 326 324 323 323 324 326 326 327 327 327 327 326 324 322 325 325 324 324 323 323 328 329 329 328 327 327 326
333 335 335 336 337 336 334 334 336 333 327 328 328 328 327 321 321 320 320 322 324 326 327 328 328 327 326 321 318 322 322 323 323 323 321 326 328 328 327 326 325 325 323
332 334 334 337 337 337 334 335 336 332 328 327 328 328 323 319 319 319 323 323 326 327 327 328 326 324 324 321 318 319 321 321 321 324 325 326 326 325 325 324 323 322 320
330 335 334 336 337 336 334 335 334 332 326 322 324 322 321 323 322 324 323 325 327 327 327 326 324 323 321 319 317 318 319 319 321 321 322 322 324 324 323 322 321 319 317
330 330 336 336 336 334 333 335 330 325 321 324 323 318 324 323 323 325 324 326 326 330 329 327 324 319 315 316 316 317 317 316 318 318 320 322 322 322 321 319 317 315 313
329 328 331 336 336 335 334 330 327 323 324 325 324 323 323 324 323 327 326 328 329 328 326 325 322 315 314 315 317 316 315 314 315 316 316 316 317 317 317 316 314 313 311
327 330 328 330 333 331 329 326 325 324 324 325 326 324 324 326 326 326 328 329 327 323 323 321 317 313 313 315 314 311 311 312 312 313 312 312 310 312 312 312 311 309 308
329 329 330 328 328 328 326 325 325 324 324 325 326 325 325 326 326 326 328 326 323 322 320 317 312 312 313 312 307 306 306 307 309 309 308 308 307 305 306 306 306 305 305
329 329 330 328 327 327 325 324 323 322 323 326 324 325 325 326 325 327 326 323 322 320 318 315 309 311 312 308 304 303 303 304 306 304 302 299 295 295 299 301 301 302 302
330 329 328 329 328 326 324 321 321 322 324 325 324 325 325 326 326 326 323 322 320 316 316 311 307 311 310 303 300 299 299 299 301 302 300 295 293 291 290 293 295 297 298
329 329 328 328 328 325 323 321 322 324 324 325 325 325 326 327 325 324 321 320 316 312 308 305 305 309 309 303 299 296 296 296 296 295 294 292 291 289 288 289 288 291 293
330 329 328 328 328 326 323 321 324 324 326 326 325 325 324 322 321 321 320 316 310 308 305 304 304 308 305 299 294 295 296 297 296 294 293 291 289 288 286 286 286 286 289
330 328 327 327 327 326 323 323 325 324 322 322 321 321 320 320 320 318 316 310 306 306 302 300 305 304 298 295 295 295 295 296 296 295 293 291 289 287 286 285 284 284 284
329 328 326 327 327 327 323 323 321 320 318 318 317 316 316 317 315 311 309 306 303 302 299 300 303 301 299 299 302 299 298 295 294 294 292 291 289 288 286 285 284 283 283
329 327 326 326 327 327 322 322 319 316 312 309 309 311 309 310 309 307 305 302 300 300 301 300 299 298 295 295 297 299 301 301 294 292 291 291 290 289 287 285 284 283 282
328 328 326 326 326 327 322 319 318 313 308 307 306 305 304 304 303 301 300 301 301 298 295 294 296 296 296 293 292 291 292 294 295 293 290 289 289 288 287 285 284 282 282
328 327 326 326 327 326 321 318 317 313 312 307 304 303 301 299 299 299 299 295 292 291 291 291 293 295 295 294 293 292 290 289 290 290 292 289 288 288 287 286 284 283 282
329 328 328 328 328 325 321 318 317 314 310 305 301 300 297 297 296 294 293 292 291 290 290 289 289 290 288 288 288 288 288 287 287 287 286 287 286 287 287 286 285 283 282
Wind_Speed
25 27 27 23 20 19 18 16 15 14 13 14 12 14 14 14 14 13 13 13 13 13 13 13 13 14 14 14 14 14 13 14 15 15 15 16 16 15 15 13 12 12 11
28 29 28 25 23 21 19 18 15 13 14 14 13 13 13 13 13 12 12 12 12 12 13 12 12 13 13 13 13 13 13 14 16 13 9 11 14 13 13 13 13 12 11
25 26 27 24 24 22 19 18 16 14 15 14 14 13 13 12 12 12 12 12 12 12 12 12 12 12 11 12 12 13 13 13 13 14 15 9 11 11 11 12 12 13 12
26 25 23 23 23 21 20 18 16 15 15 15 15 14 12 12 12 11 12 12 12 12 11 11 11 11 11 11 12 12 12 12 12 13 10 8 9 11 9 9 10 11 13
25 23 22 23 24 21 22 19 17 15 16 15 15 14 13 12 12 12 12 12 13 13 13 13 13 12 12 11 11 10 10 9 10 11 9 11 7 10 10 9 9 11 13
22 22 21 24 24 21 21 20 18 14 16 15 14 14 13 12 11 12 12 12 12 13 12 12 11 11 11 10 10 10 10 8 14 11 8 8 10 12 12 8 9 12 12
21 22 20 22 23 22 19 20 20 15 15 16 14 14 13 12 12 12 12 12 12 11 10 11 11 10 9 8 9 10 8 7 9 10 9 7 12 12 15 15 15 14 15
21 18 20 21 22 21 20 20 21 17 15 17 16 15 12 12 12 12 12 11 11 10 10 9 8 8 8 8 9 9 9 10 12 9 7 11 11 13 16 17 17 17 18
18 17 14 20 21 22 22 21 21 17 15 17 15 13 14 12 12 12 12 11 10 9 8 7 7 7 8 10 9 9 12 12 12 12 10 11 12 15 18 19 19 20 21
18 18 16 16 18 23 24 23 22 18 17 16 16 15 14 13 12 12 11 10 9 8 7 7 7 8 9 13 13 11 14 14 10 9 12 14 17 19 19 18 19 20 21
19 18 18 17 19 25 25 24 23 21 19 19 18 16 13 12 12 12 10 9 8 7 6 8 9 11 9 9 13 13 11 9 10 18 19 18 16 16 15 15 16 21 23
21 20 20 19 22 24 25 26 24 21 18 17 17 15 14 10 11 9 9 9 7 7 8 10 11 7 7 10 9 10 12 9 15 13 15 13 14 16 19 22 21 22 22
18 20 21 22 24 24 26 28 20 18 15 14 14 17 12 14 13 11 9 8 7 6 7 8 4 7 8 8 10 12 12 13 14 14 17 19 20 20 21 20 20 20 21
25 22 21 20 24 25 23 22 19 17 17 17 15 16 15 14 14 11 8 7 7 9 7 4 3 8 10 10 9 12 15 10 11 14 20 21 22 21 21 19 20 19 19
31 24 26 23 22 21 19 20 21 19 20 17 17 17 16 15 14 12 13 12 10 8 6 5 3 8 9 12 12 12 14 13 10 12 14 13 21 21 19 17 18 17 17
31 33 25 28 25 21 20 19 19 18 19 18 18 18 16 15 13 13 14 13 10 6 6 6 5 10 9 9 12 14 15 17 11 10 10 10 9 19 20 19 18 18 17
29 33 28 28 26 25 24 21 19 18 19 19 17 16 16 14 15 15 15 11 8 7 5 4 8 9 10 9 11 10 11 12 16 15 12 10 11 17 20 20 19 18 17
29 32 37 26 27 26 25 25 22 20 20 18 16 16 17 14 17 16 14 8 8 8 9 7 8 12 14 14 10 9 11 12 12 11 12 11 9 11 14 17 18 18 18
31 34 37 35 27 27 25 25 23 23 22 19 18 18 18 17 15 16 12 10 8 8 8 9 13 13 14 12 9 12 13 15 13 12 11 10 10 10 12 13 16 17 17
29 35 37 37 27 28 27 26 24 26 24 24 21 19 18 17 15 14 13 12 11 11 10 9 13 15 12 11 14 14 14 14 12 11 10 9 9 10 11 10 9 11 15
27 31 35 37 30 29 30 30 29 28 24 23 22 21 19 17 16 15 14 14 14 12 11 12 16 16 15 16 12 13 12 10 11 11 9 7 8 8 9 9 11 11 11
30 30 34 35 35 31 29 30 28 30 23 24 23 22 20 19 17 16 16 15 14 15 15 15 14 12 11 7 3 6 3 5 8 8 8 7 6 4 7 9 10 11 11
30 32 35 37 37 33 31 32 27 26 24 20 21 21 17 17 16 16 15 16 18 18 16 12 10 8 11 7 6 3 2 2 9 7 8 7 5 3 5 7 9 10 12
31 31 32 33 36 33 34 33 38 27 22 20 25 21 20 17 16 16 18 19 19 18 17 16 13 12 11 14 10 10 10 5 2 3 6 6 5 4 3 2 5 9 11
35 31 33 34 36 35 36 38 37 27 22 28 26 24 20 19 19 21 21 21 21 21 20 18 16 15 13 11 9 6 9 10 10 5 3 4 5 4 2 1 4 6 10
33 33 34 37 37 35 37 38 35 33 32 32 29 26 24 24 25 24 24 22 22 22 21 19 18 16 15 15 14 13 11 6 6 7 5 5 2 4 1 2 4 7 10
Wind_Direction
152 162 163 161 159 153 151 143 136 130 127 120 117 113 107 106 103 99 97 92 91 85 83 81 79 75 70 69 68 65 63 70 79 73 68 61 55 49 47 50 50 41 37
155 161 162 161 160 160 156 147 142 135 130 128 126 118 112 109 106 105 95 92 91 87 82 79 78 75 70 68 66 63 62 73 75 63 61 57 45 49 44 42 39 37 33
151 159 163 164 162 165 160 151 148 140 139 136 131 124 120 117 115 107 101 96 94 87 85 81 80 78 73 69 66 64 67 73 65 62 56 56 43 42 38 33 31 29 28
150 163 165 166 165 165 164 155 156 149 144 142 138 132 128 121 116 113 104 94 92 90 88 87 81 78 75 71 66 63 63 67 64 57 50 65 40 27 26 23 21 16 18
153 160 171 168 168 170 169 162 160 158 146 145 142 136 132 124 123 114 106 104 96 93 87 84 81 77 72 65 56 50 51 59 46 50 32 46 29 19 13 11 9 359 352
152 162 172 168 170 171 172 168 164 157 148 147 144 141 135 131 128 121 122 110 103 95 90 85 79 73 67 61 52 45 47 54 47 50 48 26 10 2 359 15 360 4 23
157 164 170 169 172 177 175 172 168 162 152 149 148 146 142 142 133 128 120 114 107 99 94 87 80 71 59 49 39 33 36 57 60 38 35 24 2 13 49 55 52 42 45
153 157 172 176 174 179 179 176 173 167 156 156 153 152 143 141 135 131 125 120 113 106 97 88 76 63 56 44 33 34 46 45 51 45 43 13 34 45 60 61 58 56 56
158 150 167 180 183 182 182 177 177 172 160 156 155 153 157 150 145 141 135 129 121 112 98 81 71 62 47 28 21 42 68 55 53 59 41 36 52 63 66 65 63 63 64
160 162 165 182 188 185 181 180 179 172 159 156 163 164 173 161 155 147 140 135 126 115 95 78 66 50 51 42 49 67 58 65 61 51 53 54 72 71 66 63 63 66 65
167 170 178 170 168 173 176 177 178 172 170 170 175 179 170 162 154 148 144 143 129 109 91 75 62 57 32 55 57 62 71 72 70 73 76 67 64 60 60 61 68 69 65
174 171 176 171 166 166 172 175 178 172 174 174 177 173 154 160 155 162 161 145 128 116 97 75 64 60 85 70 72 80 82 78 95 82 65 64 66 68 72 73 70 64 57
183 185 176 177 169 174 176 172 169 167 169 169 173 166 156 171 171 173 160 148 128 124 96 86 71 54 71 92 91 88 91 85 94 87 83 84 77 72 71 68 63 61 56
195 186 182 179 181 176 177 163 168 170 171 178 179 164 175 177 179 172 170 165 151 119 119 112 43 84 82 87 97 103 97 101 103 102 91 89 71 67 64 63 63 60 57
184 194 187 185 174 172 173 171 175 173 176 179 182 174 182 174 174 178 166 157 150 148 145 124 109 96 101 101 99 97 100 91 95 101 94 95 73 67 64 60 61 53 50
179 192 184 186 185 182 177 182 179 178 178 181 180 181 182 182 177 184 162 156 157 157 153 154 130 118 115 118 107 111 116 114 105 97 84 66 58 65 64 62 61 56 50
181 187 191 191 192 188 182 184 181 183 178 181 185 183 186 191 188 175 163 169 166 159 134 127 118 129 133 121 119 123 121 128 110 90 68 65 67 71 69 66 63 60 54
181 182 192 192 190 188 185 182 178 180 181 181 188 185 185 192 184 169 173 184 188 159 175 154 132 133 129 135 130 104 104 104 112 117 111 88 60 61 64 64 61 57 53
187 179 186 196 192 189 185 181 179 181 181 183 184 186 186 187 181 183 189 198 185 168 149 158 143 152 148 136 118 110 103 98 97 94 88 89 86 75 71 62 53 55 52
191 179 183 193 194 190 183 179 184 177 175 171 159 169 184 179 181 184 182 179 166 172 167 166 158 153 152 132 113 105 99 100 101 88 88 79 72 64 61 62 67 58 46
196 179 181 186 193 188 182 176 166 164 174 179 173 170 175 180 186 188 182 173 173 171 157 149 143 139 124 125 108 99 103 107 101 101 91 73 59 56 50 49 50 48 34
195 185 178 182 190 192 182 177 169 171 175 181 176 174 176 180 182 179 179 170 165 160 148 137 140 138 135 155 131 148 155 122 106 117 112 102 87 36 33 35 36 40 28
195 192 182 182 190 191 179 169 167 167 169 168 171 172 171 175 174 175 169 160 148 142 136 138 147 155 139 117 174 186 170 141 138 132 125 124 120 73 50 35 20 20 23
196 198 187 184 192 189 177 168 175 170 161 180 173 167 163 164 160 157 149 143 136 128 122 117 121 125 139 124 90 77 81 101 149 142 161 152 145 135 106 49 15 5 15
191 195 193 188 193 185 176 180 180 170 174 172 171 164 157 150 148 142 136 129 120 114 110 113 115 116 116 116 121 124 89 75 79 88 147 160 153 147 127 22 353 355 360
193 195 195 189 190 180 179 184 178 172 169 168 169 161 151 144 138 134 128 120 111 107 103 99 99 100 113 111 108 100 92 78 47 58 74 62 51 141 16 295 319 349 356